Time,TemperatureF,DewpointF,PressureIn,WindDirection,WindDirectionDegrees,WindSpeedMPH,WindSpeedGustMPH,Humidity,HourlyPrecipIn,Conditions,Clouds,dailyrainin,SoftwareType,DateUTC
2013-06-03 00:01:00,76.8,72.6,30.10,East,101,0.0,3.0,87,0.00,,BKN015,0.00,VWS V14.01,2013-06-03 04:01:00,
2013-06-03 00:02:00,76.8,72.6,30.10,East,101,0.0,0.0,87,0.00,,BKN015,0.00,VWS V14.01,2013-06-03 04:02:00,
2013-06-03 00:03:00,76.8,72.6,30.10,East,101,0.0,0.0,87,0.00,,BKN015,0.00,VWS V14.01,2013-06-03 04:03:00,
2013-06-03 00:08:00,76.8,73.0,30.10,SE,133,1.0,1.0,88,0.00,,BKN015,0.00,VWS V14.01,2013-06-03 04:08:00,
2013-06-03 00:13:00,76.8,73.0,30.10,SE,124,0.0,0.0,88,0.00,,BKN015,0.00,VWS V14.01,2013-06-03 04:13:00,
2013-06-03 00:18:00,76.8,73.0,30.10,East,85,0.0,1.0,88,0.00,,BKN015,0.00,VWS V14.01,2013-06-03 04:18:00,
2013-06-03 00:23:00,76.8,72.6,30.10,East,96,0.0,1.0,87,0.00,,BKN015,0.00,VWS V14.01,2013-06-03 04:23:00,
2013-06-03 00:28:00,76.8,72.6,30.10,East,87,0.0,0.0,87,0.00,,BKN015,0.00,VWS V14.01,2013-06-03 04:28:00,
2013-06-03 00:33:00,77.0,72.8,30.09,ENE,70,0.0,1.0,87,0.00,,BKN030,0.00,VWS V14.01,2013-06-03 04:33:00,
2013-06-03 00:38:00,77.0,72.8,30.09,East,95,0.0,0.0,87,0.00,,BKN030,0.00,VWS V14.01,2013-06-03 04:38:00,
2013-06-03 00:43:00,77.0,72.5,30.09,South,174,0.0,0.0,86,0.00,,BKN030,0.00,VWS V14.01,2013-06-03 04:43:00,
2013-06-03 00:48:00,77.0,72.5,30.10,ENE,71,0.0,1.0,86,0.00,,BKN030,0.00,VWS V14.01,2013-06-03 04:48:00,
2013-06-03 00:53:00,76.8,72.3,30.10,NNE,27,0.0,1.0,86,0.00,,BKN030,0.00,VWS V14.01,2013-06-03 04:53:00,
2013-06-03 00:58:00,76.8,72.6,30.10,NE,42,0.0,1.0,87,0.00,,BKN030,0.00,VWS V14.01,2013-06-03 04:58:00,
2013-06-03 01:03:00,76.7,72.5,30.10,ESE,104,2.0,2.0,87,0.00,,BKN030,0.00,VWS V14.01,2013-06-03 05:03:00,
2013-06-03 01:08:00,76.7,72.5,30.10,East,81,0.0,1.0,87,0.00,,BKN030,0.00,VWS V14.01,2013-06-03 05:08:00,
2013-06-03 01:13:00,76.5,72.3,30.10,ENE,65,1.0,1.0,87,0.00,,BKN030,0.00,VWS V14.01,2013-06-03 05:13:00,
2013-06-03 01:18:00,76.5,72.3,30.10,SE,128,0.0,0.0,87,0.00,,BKN030,0.00,VWS V14.01,2013-06-03 05:18:00,
2013-06-03 01:23:00,76.3,72.2,30.10,ENE,72,0.0,0.0,87,0.00,,BKN030,0.00,VWS V14.01,2013-06-03 05:23:00,
2013-06-03 01:29:00,76.3,72.2,30.10,ENE,72,0.0,0.0,87,0.00,,BKN030,0.00,VWS V14.01,2013-06-03 05:29:00,
2013-06-03 01:34:00,76.1,72.3,30.10,ENE,72,0.0,0.0,88,0.00,,BKN030,0.00,VWS V14.01,2013-06-03 05:34:00,
2013-06-03 01:39:00,76.1,72.3,30.10,ENE,63,0.0,0.0,88,0.00,,BKN030,0.00,VWS V14.01,2013-06-03 05:39:00,
2013-06-03 01:44:00,76.1,72.3,30.10,ENE,64,0.0,0.0,88,0.00,,BKN030,0.00,VWS V14.01,2013-06-03 05:44:00,
2013-06-03 01:49:00,76.1,72.3,30.09,ESE,110,0.0,0.0,88,0.00,,BKN030,0.00,VWS V14.01,2013-06-03 05:49:00,
2013-06-03 01:54:00,76.1,72.3,30.09,ENE,70,0.0,0.0,88,0.00,,BKN030,0.00,VWS V14.01,2013-06-03 05:54:00,
2013-06-03 01:59:00,76.1,72.3,30.09,ENE,70,0.0,0.0,88,0.00,,BKN030,0.00,VWS V14.01,2013-06-03 05:59:00,
2013-06-03 02:04:00,76.1,72.6,30.08,East,84,0.0,0.0,89,0.00,,BKN030,0.00,VWS V14.01,2013-06-03 06:04:00,
2013-06-03 02:09:00,76.1,72.6,30.08,East,86,0.0,0.0,89,0.00,,BKN030,0.00,VWS V14.01,2013-06-03 06:09:00,
2013-06-03 02:14:00,76.0,72.5,30.08,East,92,0.0,1.0,89,0.00,,BKN030,0.00,VWS V14.01,2013-06-03 06:14:00,
2013-06-03 02:19:00,76.0,72.5,30.08,East,82,0.0,0.0,89,0.00,,BKN030,0.00,VWS V14.01,2013-06-03 06:19:00,
2013-06-03 02:24:00,76.0,72.5,30.08,East,82,0.0,0.0,89,0.00,,BKN030,0.00,VWS V14.01,2013-06-03 06:24:00,
2013-06-03 02:29:00,76.0,72.5,30.08,East,82,0.0,0.0,89,0.00,,BKN030,0.00,VWS V14.01,2013-06-03 06:29:00,
2013-06-03 02:34:00,75.8,72.3,30.09,East,82,0.0,0.0,89,0.00,,SCT030,0.00,VWS V14.01,2013-06-03 06:34:00,
2013-06-03 02:39:00,75.8,72.3,30.09,East,82,0.0,0.0,89,0.00,,SCT030,0.00,VWS V14.01,2013-06-03 06:39:00,
2013-06-03 02:44:00,75.8,72.3,30.09,SSW,200,0.0,0.0,89,0.00,,SCT030,0.00,VWS V14.01,2013-06-03 06:44:00,
2013-06-03 02:49:00,75.8,72.3,30.08,SSW,200,0.0,0.0,89,0.00,,SCT030,0.00,VWS V14.01,2013-06-03 06:49:00,
2013-06-03 02:54:00,75.6,72.1,30.08,SW,219,0.0,0.0,89,0.00,,SCT030,0.00,VWS V14.01,2013-06-03 06:54:00,
2013-06-03 02:59:00,75.6,72.5,30.08,SW,219,0.0,0.0,90,0.00,,SCT030,0.00,VWS V14.01,2013-06-03 06:59:00,
2013-06-03 03:04:00,75.6,72.5,30.08,ENE,78,0.0,0.0,90,0.00,,SCT030,0.00,VWS V14.01,2013-06-03 07:04:00,
2013-06-03 03:09:00,75.6,72.5,30.08,ENE,78,0.0,0.0,90,0.00,,SCT030,0.00,VWS V14.01,2013-06-03 07:09:00,
2013-06-03 03:14:00,75.6,72.5,30.08,ENE,78,0.0,0.0,90,0.00,,SCT030,0.00,VWS V14.01,2013-06-03 07:14:00,
2013-06-03 03:19:00,75.6,72.5,30.08,NE,43,0.0,0.0,90,0.00,,SCT030,0.00,VWS V14.01,2013-06-03 07:19:00,
2013-06-03 03:25:00,75.6,72.5,30.08,WSW,248,0.0,0.0,90,0.00,,SCT030,0.00,VWS V14.01,2013-06-03 07:25:00,
2013-06-03 03:30:00,75.4,72.3,30.08,WSW,248,0.0,0.0,90,0.00,,SCT030,0.00,VWS V14.01,2013-06-03 07:30:00,
2013-06-03 03:35:00,75.4,72.3,30.08,WSW,248,0.0,0.0,90,0.00,,SCT030,0.00,VWS V14.01,2013-06-03 07:35:00,
2013-06-03 03:40:00,75.4,72.3,30.08,ENE,75,0.0,0.0,90,0.00,,SCT030,0.00,VWS V14.01,2013-06-03 07:40:00,
2013-06-03 03:45:00,75.4,72.3,30.06,ENE,75,0.0,0.0,90,0.00,,SCT030,0.00,VWS V14.01,2013-06-03 07:45:00,
2013-06-03 03:51:00,75.3,72.2,30.06,ENE,75,0.0,0.0,90,0.00,,SCT030,0.00,VWS V14.01,2013-06-03 07:51:00,
2013-06-03 03:56:00,75.3,72.5,30.06,ENE,76,0.0,0.0,91,0.00,,SCT030,0.00,VWS V14.01,2013-06-03 07:56:00,
2013-06-03 04:01:00,75.3,72.5,30.05,ENE,76,0.0,0.0,91,0.00,,SCT030,0.00,VWS V14.01,2013-06-03 08:01:00,
2013-06-03 04:06:00,75.3,72.5,30.05,ENE,76,0.0,0.0,91,0.00,,SCT030,0.00,VWS V14.01,2013-06-03 08:06:00,
2013-06-03 04:11:00,75.3,72.5,30.05,ENE,76,0.0,0.0,91,0.00,,SCT030,0.00,VWS V14.01,2013-06-03 08:11:00,
2013-06-03 04:16:00,75.3,72.5,30.05,ENE,76,0.0,0.0,91,0.00,,SCT030,0.00,VWS V14.01,2013-06-03 08:16:00,
2013-06-03 04:21:00,75.3,72.5,30.05,ENE,76,0.0,1.0,91,0.00,,SCT030,0.00,VWS V14.01,2013-06-03 08:21:00,
2013-06-03 04:26:00,75.4,72.6,30.05,ENE,76,0.0,0.0,91,0.00,,SCT030,0.00,VWS V14.01,2013-06-03 08:26:00,
2013-06-03 04:31:00,75.4,72.6,30.05,ENE,76,0.0,0.0,91,0.00,,SCT030,0.00,VWS V14.01,2013-06-03 08:31:00,
2013-06-03 04:36:00,75.4,72.6,30.05,ENE,76,0.0,0.0,91,0.00,,SCT030,0.00,VWS V14.01,2013-06-03 08:36:00,
2013-06-03 04:42:00,75.4,72.6,30.05,ENE,76,0.0,0.0,91,0.00,,SCT030,0.00,VWS V14.01,2013-06-03 08:42:00,
2013-06-03 04:47:00,75.4,72.6,30.05,ENE,76,0.0,0.0,91,0.00,,SCT030,0.00,VWS V14.01,2013-06-03 08:47:00,
2013-06-03 04:52:00,75.6,72.8,30.05,ENE,76,0.0,0.0,91,0.00,,SCT030,0.00,VWS V14.01,2013-06-03 08:52:00,
2013-06-03 04:57:00,75.6,72.8,30.05,ENE,76,0.0,0.0,91,0.00,,SCT030,0.00,VWS V14.01,2013-06-03 08:57:00,
2013-06-03 05:02:00,75.6,72.8,30.05,ENE,76,0.0,0.0,91,0.00,,SCT025,0.00,VWS V14.01,2013-06-03 09:02:00,
2013-06-03 05:07:00,75.6,72.8,30.05,ENE,76,0.0,0.0,91,0.00,,SCT025,0.00,VWS V14.01,2013-06-03 09:07:00,
2013-06-03 05:12:00,75.6,73.1,30.05,ENE,76,0.0,1.0,92,0.00,,SCT025,0.00,VWS V14.01,2013-06-03 09:12:00,
2013-06-03 05:17:00,75.8,73.3,30.04,ENE,76,0.0,0.0,92,0.00,,SCT025,0.00,VWS V14.01,2013-06-03 09:17:00,
2013-06-03 05:23:00,75.8,73.3,30.04,ENE,76,0.0,0.0,92,0.00,,SCT025,0.00,VWS V14.01,2013-06-03 09:23:00,
2013-06-03 05:28:00,76.0,73.5,30.04,ENE,76,0.0,0.0,92,0.00,,SCT025,0.00,VWS V14.01,2013-06-03 09:28:00,
2013-06-03 05:33:00,76.0,73.5,30.04,ENE,76,2.0,4.0,92,0.00,,BKN025,0.00,VWS V14.01,2013-06-03 09:33:00,
2013-06-03 05:38:00,76.0,73.5,30.04,ENE,76,0.0,0.0,92,0.00,,BKN025,0.00,VWS V14.01,2013-06-03 09:38:00,
2013-06-03 05:43:00,76.0,73.5,30.04,ENE,76,0.0,2.0,92,0.00,,BKN025,0.00,VWS V14.01,2013-06-03 09:43:00,
2013-06-03 05:48:00,76.0,73.5,30.03,ENE,76,0.0,0.0,92,0.00,,BKN025,0.00,VWS V14.01,2013-06-03 09:48:00,
2013-06-03 05:53:00,76.0,73.5,30.03,ENE,76,0.0,0.0,92,0.00,,BKN025,0.00,VWS V14.01,2013-06-03 09:53:00,
2013-06-03 05:58:00,76.0,73.5,30.03,ENE,76,0.0,0.0,92,0.00,,BKN025,0.00,VWS V14.01,2013-06-03 09:58:00,
2013-06-03 06:03:00,76.0,73.5,30.03,East,86,0.0,0.0,92,0.00,,BKN250,0.00,VWS V14.01,2013-06-03 10:03:00,
2013-06-03 06:09:00,76.1,73.6,30.03,East,86,0.0,0.0,92,0.00,,BKN250,0.00,VWS V14.01,2013-06-03 10:09:00,
2013-06-03 06:14:00,76.1,73.6,30.03,East,86,0.0,0.0,92,0.00,,BKN250,0.00,VWS V14.01,2013-06-03 10:14:00,
2013-06-03 06:19:00,76.1,73.6,30.05,East,86,0.0,0.0,92,0.00,,BKN250,0.00,VWS V14.01,2013-06-03 10:19:00,
2013-06-03 06:24:00,76.1,73.6,30.05,East,86,0.0,0.0,92,0.00,,BKN250,0.00,VWS V14.01,2013-06-03 10:24:00,
2013-06-03 06:29:00,76.1,73.6,30.05,East,86,0.0,0.0,92,0.00,,BKN250,0.00,VWS V14.01,2013-06-03 10:29:00,
2013-06-03 06:34:00,76.1,73.6,30.05,East,86,0.0,0.0,92,0.00,,BKN250,0.00,VWS V14.01,2013-06-03 10:34:00,
2013-06-03 06:39:00,76.1,73.6,30.05,East,86,0.0,1.0,92,0.00,,BKN250,0.00,VWS V14.01,2013-06-03 10:39:00,
2013-06-03 06:44:00,76.1,73.6,30.05,East,86,0.0,0.0,92,0.00,,BKN250,0.00,VWS V14.01,2013-06-03 10:44:00,
2013-06-03 06:49:00,76.3,73.8,30.05,East,86,0.0,0.0,92,0.00,,BKN250,0.00,VWS V14.01,2013-06-03 10:49:00,
2013-06-03 06:54:00,76.3,73.8,30.05,East,86,0.0,1.0,92,0.00,,BKN250,0.00,VWS V14.01,2013-06-03 10:54:00,
2013-06-03 06:59:00,76.3,73.8,30.05,East,86,0.0,0.0,92,0.00,,BKN250,0.00,VWS V14.01,2013-06-03 10:59:00,
2013-06-03 07:04:00,76.5,74.0,30.05,East,86,0.0,0.0,92,0.00,,BKN,0.00,VWS V14.01,2013-06-03 11:04:00,
2013-06-03 07:09:00,76.5,74.0,30.05,East,84,0.0,3.0,92,0.00,,BKN,0.00,VWS V14.01,2013-06-03 11:09:00,
2013-06-03 07:14:00,76.7,74.2,30.05,ENE,70,0.0,0.0,92,0.00,,BKN,0.00,VWS V14.01,2013-06-03 11:14:00,
2013-06-03 07:19:00,76.7,73.9,30.05,ENE,70,0.0,0.0,91,0.00,,BKN,0.00,VWS V14.01,2013-06-03 11:19:00,
2013-06-03 07:24:00,76.8,74.0,30.05,ENE,70,0.0,0.0,91,0.00,,BKN,0.00,VWS V14.01,2013-06-03 11:24:00,
2013-06-03 07:29:00,77.0,74.2,30.05,East,89,0.0,3.0,91,0.00,,BKN,0.00,VWS V14.01,2013-06-03 11:29:00,
2013-06-03 07:34:00,77.0,74.2,30.05,East,89,0.0,0.0,91,0.00,,BKN,0.00,VWS V14.01,2013-06-03 11:34:00,
2013-06-03 07:39:00,77.2,74.0,30.05,East,89,0.0,0.0,90,0.00,,BKN,0.00,VWS V14.01,2013-06-03 11:39:00,
2013-06-03 07:45:00,77.4,74.2,30.06,East,89,0.0,2.0,90,0.00,,BKN,0.00,VWS V14.01,2013-06-03 11:45:00,
2013-06-03 07:50:00,77.6,74.4,30.06,SE,146,0.0,0.0,90,0.00,,BKN,0.00,VWS V14.01,2013-06-03 11:50:00,
2013-06-03 07:55:00,77.7,74.5,30.06,ENE,66,0.0,0.0,90,0.00,,BKN,0.00,VWS V14.01,2013-06-03 11:55:00,
2013-06-03 08:00:00,77.9,74.4,30.06,ENE,72,0.0,2.0,89,0.00,,BKN,0.00,VWS V14.01,2013-06-03 12:00:00,
2013-06-03 08:05:00,77.9,74.4,30.06,ENE,77,0.0,0.0,89,0.00,,BKN,0.00,VWS V14.01,2013-06-03 12:05:00,
2013-06-03 08:10:00,78.1,74.6,30.06,East,83,0.0,0.0,89,0.00,,BKN,0.00,VWS V14.01,2013-06-03 12:10:00,
2013-06-03 08:15:00,78.1,74.3,30.07,East,83,0.0,1.0,88,0.00,,BKN,0.00,VWS V14.01,2013-06-03 12:15:00,
2013-06-03 08:20:00,78.1,74.3,30.07,East,84,0.0,0.0,88,0.00,,BKN,0.00,VWS V14.01,2013-06-03 12:20:00,
2013-06-03 08:25:00,78.5,74.7,30.07,NE,39,0.0,0.0,88,0.00,,BKN,0.00,VWS V14.01,2013-06-03 12:25:00,
2013-06-03 08:31:00,79.6,74.7,30.07,ESE,115,0.0,0.0,85,0.00,,BKN,0.00,VWS V14.01,2013-06-03 12:31:00,
2013-06-03 08:36:00,80.3,74.7,30.07,ENE,65,0.0,0.0,83,0.00,,BKN,0.00,VWS V14.01,2013-06-03 12:36:00,
2013-06-03 08:41:00,80.7,74.7,30.07,West,274,0.0,0.0,82,0.00,,BKN,0.00,VWS V14.01,2013-06-03 12:41:00,
2013-06-03 08:47:00,81.1,75.1,30.07,North,6,0.0,0.0,82,0.00,,BKN,0.00,VWS V14.01,2013-06-03 12:47:00,
2013-06-03 08:52:00,81.8,74.7,30.07,East,91,2.0,4.0,79,0.00,,BKN,0.00,VWS V14.01,2013-06-03 12:52:00,
2013-06-03 08:57:00,82.4,75.2,30.07,NE,53,0.0,1.0,79,0.00,,BKN,0.00,VWS V14.01,2013-06-03 12:57:00,
2013-06-03 09:02:00,82.8,75.2,30.07,West,263,0.0,1.0,78,0.00,,BKN,0.00,VWS V14.01,2013-06-03 13:02:00,
2013-06-03 09:07:00,82.6,75.1,30.07,SE,141,0.0,1.0,78,0.00,,BKN,0.00,VWS V14.01,2013-06-03 13:07:00,
2013-06-03 09:12:00,82.4,74.9,30.07,NNW,330,0.0,2.0,78,0.00,,BKN,0.00,VWS V14.01,2013-06-03 13:12:00,
2013-06-03 09:17:00,82.0,74.5,30.07,SE,139,0.0,0.0,78,0.00,,BKN,0.00,VWS V14.01,2013-06-03 13:17:00,
2013-06-03 09:22:00,82.0,74.5,30.07,East,88,0.0,2.0,78,0.00,,BKN,0.00,VWS V14.01,2013-06-03 13:22:00,
2013-06-03 09:27:00,82.0,74.5,30.07,ESE,110,0.0,1.0,78,0.00,,BKN,0.00,VWS V14.01,2013-06-03 13:27:00,
2013-06-03 09:32:00,81.8,74.7,30.07,SE,141,0.0,2.0,79,0.00,,BKN,0.00,VWS V14.01,2013-06-03 13:32:00,
2013-06-03 09:37:00,81.6,74.8,30.07,NE,56,0.0,3.0,80,0.00,,BKN,0.00,VWS V14.01,2013-06-03 13:37:00,
2013-06-03 09:42:00,81.1,74.7,30.07,ENE,70,0.0,0.0,81,0.00,,BKN,0.00,VWS V14.01,2013-06-03 13:42:00,
2013-06-03 09:47:00,81.2,74.8,30.06,East,90,0.0,3.0,81,0.00,,BKN,0.00,VWS V14.01,2013-06-03 13:47:00,
2013-06-03 09:53:00,81.6,74.1,30.06,ENE,75,1.0,5.0,78,0.00,,BKN,0.00,VWS V14.01,2013-06-03 13:53:00,
2013-06-03 09:58:00,81.6,73.3,30.06,East,89,0.0,0.0,76,0.00,,BKN,0.00,VWS V14.01,2013-06-03 13:58:00,
2013-06-03 10:03:00,81.2,74.4,30.06,SE,127,0.0,0.0,80,0.00,,-RA,0.00,VWS V14.01,2013-06-03 14:03:00,
2013-06-03 10:08:00,80.3,74.7,30.06,West,280,0.0,0.0,83,0.03,,-RA,0.03,VWS V14.01,2013-06-03 14:08:00,
2013-06-03 10:13:00,79.2,74.3,30.06,WNW,284,0.0,0.0,85,0.08,,-RA,0.08,VWS V14.01,2013-06-03 14:13:00,
2013-06-03 10:18:00,78.6,74.4,30.07,WNW,284,0.0,0.0,87,0.08,,-RA,0.08,VWS V14.01,2013-06-03 14:18:00,
2013-06-03 10:23:00,78.3,74.5,30.07,WNW,284,0.0,0.0,88,0.08,,-RA,0.08,VWS V14.01,2013-06-03 14:23:00,
2013-06-03 10:28:00,78.1,74.6,30.07,WNW,284,0.0,0.0,89,0.08,,-RA,0.08,VWS V14.01,2013-06-03 14:28:00,
2013-06-03 10:34:00,77.9,74.7,30.07,WNW,284,0.0,0.0,90,0.08,,,0.08,VWS V14.01,2013-06-03 14:34:00,
2013-06-03 10:39:00,77.7,74.5,30.07,NNW,338,0.0,2.0,90,0.08,,,0.08,VWS V14.01,2013-06-03 14:39:00,
2013-06-03 10:44:00,77.2,74.0,30.07,SSW,211,3.0,3.0,90,0.13,,,0.13,VWS V14.01,2013-06-03 14:44:00,
2013-06-03 10:49:00,74.6,71.5,30.09,West,265,0.0,2.0,90,0.25,,,0.25,VWS V14.01,2013-06-03 14:49:00,
2013-06-03 10:54:00,72.7,69.9,30.09,WSW,250,2.0,4.0,91,0.40,,,0.40,VWS V14.01,2013-06-03 14:54:00,
2013-06-03 10:59:00,72.0,69.9,30.09,WSW,255,0.0,0.0,93,0.57,,,0.57,VWS V14.01,2013-06-03 14:59:00,
2013-06-03 11:04:00,71.3,69.2,30.09,SW,226,0.0,1.0,93,0.66,,,0.66,VWS V14.01,2013-06-03 15:04:00,
2013-06-03 11:09:00,70.4,68.6,30.09,West,259,0.0,0.0,94,0.75,,,0.78,VWS V14.01,2013-06-03 15:09:00,
2013-06-03 11:14:00,70.1,68.6,30.09,East,98,2.0,2.0,95,0.74,,,0.82,VWS V14.01,2013-06-03 15:14:00,
2013-06-03 11:20:00,69.8,68.3,30.08,East,85,0.0,0.0,95,0.76,,,0.84,VWS V14.01,2013-06-03 15:20:00,
2013-06-03 11:25:00,69.8,68.3,30.08,East,82,0.0,1.0,95,0.79,,,0.87,VWS V14.01,2013-06-03 15:25:00,
2013-06-03 11:30:00,69.4,67.9,30.08,ENE,65,0.0,0.0,95,0.86,,,0.94,VWS V14.01,2013-06-03 15:30:00,
2013-06-03 11:35:00,69.3,68.1,30.08,ENE,67,0.0,0.0,96,0.88,,,0.96,VWS V14.01,2013-06-03 15:35:00,
2013-06-03 11:40:00,69.3,68.1,30.08,East,100,0.0,2.0,96,0.89,,,0.97,VWS V14.01,2013-06-03 15:40:00,
2013-06-03 11:45:00,69.4,68.2,30.09,NE,52,0.0,0.0,96,0.82,,,0.98,VWS V14.01,2013-06-03 15:45:00,
2013-06-03 11:50:00,69.4,68.2,30.09,East,80,0.0,0.0,96,0.72,,,0.98,VWS V14.01,2013-06-03 15:50:00,
2013-06-03 11:55:00,69.6,68.4,30.09,East,79,0.0,0.0,96,0.56,,,0.98,VWS V14.01,2013-06-03 15:55:00,
2013-06-03 12:00:00,69.9,69.0,30.08,WSW,247,0.0,0.0,97,0.40,,BKN075,0.98,VWS V14.01,2013-06-03 16:00:00,
2013-06-03 12:05:00,70.3,69.4,30.08,WSW,247,0.0,0.0,97,0.32,,BKN075,0.98,VWS V14.01,2013-06-03 16:05:00,
2013-06-03 12:10:00,70.6,69.7,30.08,WSW,247,0.0,0.0,97,0.20,,BKN075,0.98,VWS V14.01,2013-06-03 16:10:00,
2013-06-03 12:15:00,70.9,70.0,30.09,WSW,247,0.0,0.0,97,0.16,,BKN075,0.98,VWS V14.01,2013-06-03 16:15:00,
2013-06-03 12:20:00,71.1,70.2,30.09,WSW,247,0.0,0.0,97,0.14,,BKN075,0.98,VWS V14.01,2013-06-03 16:20:00,
2013-06-03 12:25:00,71.5,70.6,30.09,WSW,245,0.0,0.0,97,0.12,,BKN075,0.98,VWS V14.01,2013-06-03 16:25:00,
2013-06-03 12:30:00,72.0,71.1,30.08,WSW,245,0.0,0.0,97,0.05,,-RA,0.98,VWS V14.01,2013-06-03 16:30:00,
2013-06-03 12:35:00,72.0,71.1,30.08,WSW,245,0.0,0.0,97,0.03,,-RA,0.98,VWS V14.01,2013-06-03 16:35:00,
2013-06-03 12:41:00,72.1,71.2,30.08,WSW,245,0.0,0.0,97,0.01,,-RA,0.98,VWS V14.01,2013-06-03 16:41:00,
2013-06-03 12:46:00,72.3,71.4,30.07,WSW,245,0.0,0.0,97,0.00,,-RA,0.98,VWS V14.01,2013-06-03 16:46:00,
2013-06-03 12:51:00,72.5,71.6,30.07,WSW,245,0.0,0.0,97,0.00,,-RA,0.98,VWS V14.01,2013-06-03 16:51:00,
2013-06-03 12:56:00,73.0,72.1,30.07,WSW,245,0.0,0.0,97,0.00,,-RA,0.98,VWS V14.01,2013-06-03 16:56:00,
2013-06-03 13:01:00,73.7,72.8,30.07,WSW,245,0.0,0.0,97,0.00,,,0.98,VWS V14.01,2013-06-03 17:01:00,
2013-06-03 13:06:00,74.6,73.7,30.07,ENE,60,3.0,3.0,97,0.00,,,0.98,VWS V14.01,2013-06-03 17:06:00,
2013-06-03 13:11:00,74.6,73.7,30.07,ENE,78,0.0,0.0,97,0.00,,,0.98,VWS V14.01,2013-06-03 17:11:00,
2013-06-03 13:16:00,74.7,73.5,30.07,East,84,0.0,0.0,96,0.00,,,0.98,VWS V14.01,2013-06-03 17:16:00,
2013-06-03 13:21:00,74.7,73.5,30.07,East,84,0.0,0.0,96,0.00,,,0.98,VWS V14.01,2013-06-03 17:21:00,
2013-06-03 13:26:00,74.9,73.7,30.07,East,84,0.0,0.0,96,0.00,,,0.98,VWS V14.01,2013-06-03 17:26:00,
2013-06-03 13:31:00,74.9,73.7,30.07,East,84,0.0,0.0,96,0.00,,,0.98,VWS V14.01,2013-06-03 17:31:00,
2013-06-03 13:37:00,74.6,73.1,30.07,ENE,76,0.0,0.0,95,0.00,,,0.98,VWS V14.01,2013-06-03 17:37:00,
2013-06-03 13:42:00,74.6,72.8,30.07,ENE,76,0.0,0.0,94,0.00,,,0.98,VWS V14.01,2013-06-03 17:42:00,
2013-06-03 13:47:00,74.4,72.6,30.07,ENE,76,0.0,0.0,94,0.00,,,0.98,VWS V14.01,2013-06-03 17:47:00,
2013-06-03 13:52:00,74.2,72.1,30.07,ENE,76,0.0,0.0,93,0.00,,,0.98,VWS V14.01,2013-06-03 17:52:00,
2013-06-03 13:57:00,73.9,71.8,30.07,ENE,76,0.0,0.0,93,0.00,,,0.98,VWS V14.01,2013-06-03 17:57:00,
2013-06-03 14:02:00,73.7,71.6,30.07,ENE,76,0.0,0.0,93,0.00,,BKN085,0.98,VWS V14.01,2013-06-03 18:02:00,
2013-06-03 14:07:00,73.7,71.6,30.07,ENE,76,0.0,0.0,93,0.00,,BKN085,0.98,VWS V14.01,2013-06-03 18:07:00,
2013-06-03 14:13:00,73.5,71.4,30.07,ENE,76,0.0,0.0,93,0.00,,BKN085,0.98,VWS V14.01,2013-06-03 18:13:00,
2013-06-03 14:18:00,73.3,71.2,30.05,ENE,76,0.0,0.0,93,0.01,,BKN085,0.99,VWS V14.01,2013-06-03 18:18:00,
2013-06-03 14:23:00,73.2,71.1,30.05,ENE,76,0.0,0.0,93,0.01,,BKN085,0.99,VWS V14.01,2013-06-03 18:23:00,
2013-06-03 14:28:00,73.2,71.4,30.05,ENE,76,0.0,0.0,94,0.01,,BKN085,0.99,VWS V14.01,2013-06-03 18:28:00,
2013-06-03 14:33:00,73.0,71.2,30.05,ENE,76,0.0,0.0,94,0.01,,BKN085,0.99,VWS V14.01,2013-06-03 18:33:00,
2013-06-03 14:38:00,73.2,71.4,30.05,ENE,76,0.0,0.0,94,0.01,,BKN085,0.99,VWS V14.01,2013-06-03 18:38:00,
2013-06-03 14:43:00,73.0,71.2,30.05,ENE,76,0.0,0.0,94,0.01,,BKN085,0.99,VWS V14.01,2013-06-03 18:43:00,
2013-06-03 14:48:00,73.0,71.2,30.07,ENE,76,0.0,0.0,94,0.02,,BKN085,1.00,VWS V14.01,2013-06-03 18:48:00,
2013-06-03 14:53:00,72.8,70.7,30.07,ENE,76,0.0,0.0,93,0.02,,BKN085,1.00,VWS V14.01,2013-06-03 18:53:00,
2013-06-03 14:59:00,72.5,70.4,30.07,SSE,159,0.0,0.0,93,0.02,,BKN085,1.00,VWS V14.01,2013-06-03 18:59:00,
2013-06-03 15:04:00,72.3,70.2,30.05,West,277,0.0,0.0,93,0.02,,BKN080,1.00,VWS V14.01,2013-06-03 19:04:00,
2013-06-03 15:09:00,72.1,70.0,30.05,West,277,0.0,0.0,93,0.03,,BKN080,1.01,VWS V14.01,2013-06-03 19:09:00,
2013-06-03 15:14:00,72.1,70.0,30.05,West,277,0.0,0.0,93,0.03,,BKN080,1.01,VWS V14.01,2013-06-03 19:14:00,
2013-06-03 15:19:00,72.1,70.3,30.05,East,79,0.0,3.0,94,0.02,,BKN080,1.01,VWS V14.01,2013-06-03 19:19:00,
2013-06-03 15:24:00,72.1,70.3,30.05,East,79,0.0,1.0,94,0.02,,BKN080,1.01,VWS V14.01,2013-06-03 19:24:00,
2013-06-03 15:29:00,72.1,70.3,30.05,East,79,0.0,0.0,94,0.02,,BKN080,1.01,VWS V14.01,2013-06-03 19:29:00,
2013-06-03 15:34:00,72.1,70.3,30.05,ENE,78,0.0,3.0,94,0.02,,BKN080,1.01,VWS V14.01,2013-06-03 19:34:00,
2013-06-03 15:39:00,72.1,70.0,30.05,ENE,78,0.0,0.0,93,0.02,,BKN080,1.01,VWS V14.01,2013-06-03 19:39:00,
2013-06-03 15:44:00,72.3,70.2,30.05,ENE,78,0.0,0.0,93,0.02,,BKN080,1.01,VWS V14.01,2013-06-03 19:44:00,
2013-06-03 15:49:00,72.5,70.4,30.04,ENE,78,0.0,0.0,93,0.01,,BKN080,1.01,VWS V14.01,2013-06-03 19:49:00,
2013-06-03 15:54:00,72.7,70.6,30.04,ENE,78,0.0,0.0,93,0.01,,BKN080,1.01,VWS V14.01,2013-06-03 19:54:00,
2013-06-03 16:00:00,73.0,71.2,30.04,ENE,78,0.0,0.0,94,0.01,,BKN080,1.01,VWS V14.01,2013-06-03 20:00:00,
2013-06-03 16:05:00,74.2,72.7,30.04,ENE,78,0.0,0.0,95,0.01,,,1.01,VWS V14.01,2013-06-03 20:05:00,
2013-06-03 16:10:00,74.7,72.6,30.04,SE,132,0.0,0.0,93,0.00,,,1.01,VWS V14.01,2013-06-03 20:10:00,
2013-06-03 16:15:00,75.1,72.3,30.03,SE,132,0.0,0.0,91,0.00,,,1.01,VWS V14.01,2013-06-03 20:15:00,
2013-06-03 16:20:00,75.6,72.5,30.03,ENE,72,0.0,0.0,90,0.00,,,1.01,VWS V14.01,2013-06-03 20:20:00,
2013-06-03 16:25:00,76.0,72.9,30.03,ENE,72,2.0,2.0,90,0.00,,,1.01,VWS V14.01,2013-06-03 20:25:00,
2013-06-03 16:30:00,75.6,71.5,30.03,West,277,0.0,0.0,87,0.00,,,1.01,VWS V14.01,2013-06-03 20:30:00,
2013-06-03 16:35:00,75.4,71.6,30.03,West,277,0.0,0.0,88,0.00,,,1.01,VWS V14.01,2013-06-03 20:35:00,
2013-06-03 16:41:00,75.8,72.0,30.03,NE,56,0.0,0.0,88,0.00,,,1.01,VWS V14.01,2013-06-03 20:41:00,
2013-06-03 16:46:00,76.3,72.5,30.02,NNW,333,0.0,1.0,88,0.00,,,1.01,VWS V14.01,2013-06-03 20:46:00,
2013-06-03 16:51:00,76.5,72.3,30.02,NNW,333,0.0,0.0,87,0.00,,,1.01,VWS V14.01,2013-06-03 20:51:00,
2013-06-03 16:56:00,77.2,73.4,30.02,NNW,333,0.0,0.0,88,0.00,,,1.01,VWS V14.01,2013-06-03 20:56:00,
2013-06-03 17:01:00,77.6,73.1,30.02,NNW,333,0.0,0.0,86,0.00,,BKN150,1.01,VWS V14.01,2013-06-03 21:01:00,
2013-06-03 17:06:00,77.7,72.8,30.02,NNW,334,0.0,0.0,85,0.00,,BKN150,1.01,VWS V14.01,2013-06-03 21:06:00,
2013-06-03 17:11:00,77.7,72.5,30.02,ENE,72,0.0,0.0,84,0.00,,BKN150,1.01,VWS V14.01,2013-06-03 21:11:00,
2013-06-03 17:17:00,77.9,72.7,30.02,ENE,72,0.0,0.0,84,0.00,,BKN150,1.01,VWS V14.01,2013-06-03 21:17:00,
2013-06-03 17:22:00,78.5,74.0,30.02,ENE,72,0.0,0.0,86,0.00,,BKN150,1.01,VWS V14.01,2013-06-03 21:22:00,
2013-06-03 17:27:00,79.0,73.8,30.02,ENE,72,0.0,1.0,84,0.00,,BKN150,1.01,VWS V14.01,2013-06-03 21:27:00,
2013-06-03 17:32:00,79.6,74.0,30.02,South,188,0.0,0.0,83,0.00,,BKN150,1.01,VWS V14.01,2013-06-03 21:32:00,
2013-06-03 17:37:00,80.5,74.1,30.02,South,189,0.0,0.0,81,0.00,,BKN150,1.01,VWS V14.01,2013-06-03 21:37:00,
2013-06-03 17:42:00,80.9,74.2,30.02,SSW,196,0.0,0.0,80,0.00,,BKN150,1.01,VWS V14.01,2013-06-03 21:42:00,
2013-06-03 17:47:00,82.2,75.4,30.02,SSW,196,0.0,0.0,80,0.00,,BKN150,1.01,VWS V14.01,2013-06-03 21:47:00,
2013-06-03 17:52:00,83.0,74.7,30.02,NE,39,0.0,1.0,76,0.00,,BKN150,1.01,VWS V14.01,2013-06-03 21:52:00,
2013-06-03 17:57:00,82.6,74.3,30.02,NE,41,0.0,0.0,76,0.00,,BKN150,1.01,VWS V14.01,2013-06-03 21:57:00,
2013-06-03 18:02:00,82.4,74.1,30.02,NE,41,0.0,1.0,76,0.00,,BKN250,1.01,VWS V14.01,2013-06-03 22:02:00,
2013-06-03 18:07:00,82.0,73.7,30.02,NE,41,0.0,0.0,76,0.00,,BKN250,1.01,VWS V14.01,2013-06-03 22:07:00,
2013-06-03 18:12:00,81.4,72.7,30.02,NE,41,0.0,0.0,75,0.00,,BKN250,1.01,VWS V14.01,2013-06-03 22:12:00,
2013-06-03 18:17:00,81.1,73.2,30.02,NE,41,0.0,0.0,77,0.00,,BKN250,1.01,VWS V14.01,2013-06-03 22:17:00,
2013-06-03 18:22:00,80.7,72.8,30.02,NE,41,0.0,0.0,77,0.00,,BKN250,1.01,VWS V14.01,2013-06-03 22:22:00,
2013-06-03 18:27:00,80.1,72.2,30.02,NE,41,0.0,0.0,77,0.00,,BKN250,1.01,VWS V14.01,2013-06-03 22:27:00,
2013-06-03 18:32:00,79.8,71.9,30.01,NE,41,0.0,0.0,77,0.00,,BKN250,1.01,VWS V14.01,2013-06-03 22:32:00,
2013-06-03 18:38:00,79.6,71.8,30.01,NE,41,0.0,0.0,77,0.00,,BKN250,1.01,VWS V14.01,2013-06-03 22:38:00,
2013-06-03 18:43:00,79.6,72.1,30.01,NE,41,0.0,0.0,78,0.00,,BKN250,1.01,VWS V14.01,2013-06-03 22:43:00,
2013-06-03 18:48:00,80.1,72.6,30.01,NE,41,0.0,0.0,78,0.00,,BKN250,1.01,VWS V14.01,2013-06-03 22:48:00,
2013-06-03 18:53:00,80.3,72.8,30.01,NE,41,0.0,0.0,78,0.00,,BKN250,1.01,VWS V14.01,2013-06-03 22:53:00,
2013-06-03 18:58:00,80.3,72.8,30.01,NE,43,2.0,2.0,78,0.00,,BKN250,1.01,VWS V14.01,2013-06-03 22:58:00,
2013-06-03 19:03:00,80.3,72.4,30.02,ENE,58,0.0,0.0,77,0.00,,BKN250,1.01,VWS V14.01,2013-06-03 23:03:00,
2013-06-03 19:08:00,80.3,72.8,30.02,ENE,58,0.0,0.0,78,0.00,,BKN250,1.01,VWS V14.01,2013-06-03 23:08:00,
2013-06-03 19:13:00,80.5,72.6,30.02,ENE,58,0.0,0.0,77,0.00,,BKN250,1.01,VWS V14.01,2013-06-03 23:13:00,
2013-06-03 19:18:00,80.3,72.8,30.01,ENE,58,0.0,0.0,78,0.00,,BKN250,1.01,VWS V14.01,2013-06-03 23:18:00,
2013-06-03 19:23:00,79.6,72.5,30.01,ENE,58,0.0,0.0,79,0.00,,BKN250,1.01,VWS V14.01,2013-06-03 23:23:00,
2013-06-03 19:28:00,79.2,72.9,30.01,ENE,58,0.0,0.0,81,0.00,,BKN250,1.01,VWS V14.01,2013-06-03 23:28:00,
2013-06-03 19:34:00,78.8,72.5,30.02,ENE,58,0.0,0.0,81,0.00,,BKN250,1.01,VWS V14.01,2013-06-03 23:34:00,
2013-06-03 19:39:00,78.6,71.9,30.02,ENE,58,0.0,0.0,80,0.00,,BKN250,1.01,VWS V14.01,2013-06-03 23:39:00,
2013-06-03 19:44:00,78.5,71.8,30.02,ENE,58,0.0,0.0,80,0.00,,BKN250,1.01,VWS V14.01,2013-06-03 23:44:00,
2013-06-03 19:49:00,78.5,72.2,30.03,ENE,58,0.0,0.0,81,0.00,,BKN250,1.01,VWS V14.01,2013-06-03 23:49:00,
2013-06-03 19:54:00,78.3,72.0,30.03,ENE,58,0.0,0.0,81,0.00,,BKN250,1.01,VWS V14.01,2013-06-03 23:54:00,
2013-06-03 19:59:00,77.9,72.0,30.03,ENE,58,0.0,0.0,82,0.00,,BKN250,1.01,VWS V14.01,2013-06-03 23:59:00,
2013-06-03 20:04:00,77.7,71.8,30.04,ENE,58,0.0,0.0,82,0.00,,BKN250,1.01,VWS V14.01,2013-06-04 00:04:00,
2013-06-03 20:09:00,77.6,72.0,30.04,ENE,58,0.0,0.0,83,0.00,,BKN250,1.01,VWS V14.01,2013-06-04 00:09:00,
2013-06-03 20:14:00,77.4,72.2,30.04,ENE,58,0.0,0.0,84,0.00,,BKN250,1.01,VWS V14.01,2013-06-04 00:14:00,
2013-06-03 20:19:00,77.2,72.0,30.05,ENE,58,0.0,0.0,84,0.00,,BKN250,1.01,VWS V14.01,2013-06-04 00:19:00,
2013-06-03 20:24:00,77.0,72.2,30.05,ENE,58,0.0,0.0,85,0.00,,BKN250,1.01,VWS V14.01,2013-06-04 00:24:00,
2013-06-03 20:30:00,76.7,72.2,30.05,ENE,58,0.0,0.0,86,0.00,,BKN250,1.01,VWS V14.01,2013-06-04 00:30:00,
2013-06-03 20:35:00,76.5,72.3,30.05,ENE,58,0.0,0.0,87,0.00,,BKN250,1.01,VWS V14.01,2013-06-04 00:35:00,
2013-06-03 20:40:00,76.3,72.2,30.05,ENE,58,0.0,0.0,87,0.00,,BKN250,1.01,VWS V14.01,2013-06-04 00:40:00,
2013-06-03 20:45:00,76.1,72.3,30.05,ENE,58,0.0,0.0,88,0.00,,BKN250,1.01,VWS V14.01,2013-06-04 00:45:00,
2013-06-03 20:50:00,76.0,72.2,30.05,ENE,58,0.0,0.0,88,0.00,,BKN250,1.01,VWS V14.01,2013-06-04 00:50:00,
2013-06-03 20:55:00,75.8,72.0,30.05,ENE,58,0.0,0.0,88,0.00,,BKN250,1.01,VWS V14.01,2013-06-04 00:55:00,
2013-06-03 21:00:00,75.6,72.1,30.05,ENE,58,0.0,0.0,89,0.00,,SCT250,1.01,VWS V14.01,2013-06-04 01:00:00,
2013-06-03 21:05:00,75.6,72.1,30.05,ENE,58,0.0,0.0,89,0.00,,SCT250,1.01,VWS V14.01,2013-06-04 01:05:00,
2013-06-03 21:11:00,75.4,71.9,30.05,ENE,58,0.0,0.0,89,0.00,,SCT250,1.01,VWS V14.01,2013-06-04 01:11:00,
2013-06-03 21:16:00,75.3,72.2,30.07,ENE,58,0.0,0.0,90,0.00,,SCT250,1.01,VWS V14.01,2013-06-04 01:16:00,
2013-06-03 21:21:00,75.1,72.0,30.07,ENE,58,0.0,0.0,90,0.00,,SCT250,1.01,VWS V14.01,2013-06-04 01:21:00,
2013-06-03 21:26:00,75.1,72.0,30.07,ENE,58,0.0,0.0,90,0.00,,SCT250,1.01,VWS V14.01,2013-06-04 01:26:00,
2013-06-03 21:31:00,74.7,71.9,30.07,ENE,58,0.0,0.0,91,0.00,,SCT250,1.01,VWS V14.01,2013-06-04 01:31:00,
2013-06-03 21:37:00,74.6,71.8,30.07,ENE,58,0.0,0.0,91,0.00,,SCT250,1.01,VWS V14.01,2013-06-04 01:37:00,
2013-06-03 21:42:00,74.4,71.9,30.07,ENE,58,0.0,0.0,92,0.00,,SCT250,1.01,VWS V14.01,2013-06-04 01:42:00,
2013-06-03 21:47:00,74.4,72.2,30.08,ENE,58,0.0,0.0,93,0.00,,SCT250,1.01,VWS V14.01,2013-06-04 01:47:00,
2013-06-03 21:52:00,74.2,72.1,30.08,ENE,58,0.0,0.0,93,0.00,,SCT250,1.01,VWS V14.01,2013-06-04 01:52:00,
2013-06-03 21:57:00,74.0,71.8,30.08,ENE,58,0.0,0.0,93,0.00,,SCT250,1.01,VWS V14.01,2013-06-04 01:57:00,
2013-06-03 22:02:00,74.0,71.8,30.09,ENE,58,0.0,0.0,93,0.00,,SCT250,1.01,VWS V14.01,2013-06-04 02:02:00,
2013-06-03 22:08:00,73.9,71.8,30.09,ENE,58,0.0,0.0,93,0.00,,SCT250,1.01,VWS V14.01,2013-06-04 02:08:00,
2013-06-03 22:13:00,73.9,72.1,30.09,ENE,58,0.0,0.0,94,0.00,,SCT250,1.01,VWS V14.01,2013-06-04 02:13:00,
2013-06-03 22:18:00,74.0,72.2,30.11,ENE,58,0.0,0.0,94,0.00,,SCT250,1.01,VWS V14.01,2013-06-04 02:18:00,
2013-06-03 22:23:00,74.0,72.2,30.11,ENE,58,0.0,0.0,94,0.00,,SCT250,1.01,VWS V14.01,2013-06-04 02:23:00,
2013-06-03 22:28:00,74.0,71.8,30.11,ENE,58,0.0,0.0,93,0.00,,SCT250,1.01,VWS V14.01,2013-06-04 02:28:00,
2013-06-03 22:33:00,74.0,71.8,30.11,SSE,165,0.0,3.0,93,0.00,,SCT250,1.01,VWS V14.01,2013-06-04 02:33:00,
2013-06-03 22:38:00,73.9,71.4,30.11,NNE,30,0.0,0.0,92,0.00,,SCT250,1.01,VWS V14.01,2013-06-04 02:38:00,
2013-06-03 22:43:00,73.7,70.6,30.11,ENE,68,0.0,0.0,90,0.00,,SCT250,1.01,VWS V14.01,2013-06-04 02:43:00,
2013-06-03 22:48:00,73.5,70.4,30.12,NNE,13,0.0,0.0,90,0.00,,SCT250,1.01,VWS V14.01,2013-06-04 02:48:00,
2013-06-03 22:53:00,73.5,70.1,30.12,NNE,13,0.0,0.0,89,0.00,,SCT250,1.01,VWS V14.01,2013-06-04 02:53:00,
2013-06-03 22:58:00,73.3,69.9,30.12,NNE,13,0.0,0.0,89,0.00,,SCT250,1.01,VWS V14.01,2013-06-04 02:58:00,
2013-06-03 23:03:00,73.3,69.5,30.12,NNE,13,0.0,0.0,88,0.00,,BKN100,1.01,VWS V14.01,2013-06-04 03:03:00,
2013-06-03 23:08:00,73.2,69.4,30.12,NNE,13,0.0,0.0,88,0.00,,BKN100,1.01,VWS V14.01,2013-06-04 03:08:00,
2013-06-03 23:13:00,73.0,69.2,30.12,NNE,13,0.0,0.0,88,0.00,,BKN100,1.01,VWS V14.01,2013-06-04 03:13:00,
2013-06-03 23:18:00,72.8,69.0,30.12,NNE,13,0.0,0.0,88,0.00,,BKN100,1.01,VWS V14.01,2013-06-04 03:18:00,
2013-06-03 23:23:00,72.7,68.9,30.12,NNE,13,0.0,0.0,88,0.00,,BKN100,1.01,VWS V14.01,2013-06-04 03:23:00,
2013-06-03 23:28:00,72.5,68.8,30.12,NNE,13,0.0,0.0,88,0.00,,BKN100,1.01,VWS V14.01,2013-06-04 03:28:00,
2013-06-03 23:33:00,72.5,69.1,30.11,NNE,13,0.0,0.0,89,0.00,,BKN100,1.01,VWS V14.01,2013-06-04 03:33:00,
2013-06-03 23:38:00,72.3,68.9,30.11,NNE,13,0.0,0.0,89,0.00,,BKN100,1.01,VWS V14.01,2013-06-04 03:38:00,
2013-06-03 23:43:00,72.1,68.7,30.11,NNE,13,0.0,0.0,89,0.00,,BKN100,1.01,VWS V14.01,2013-06-04 03:43:00,
2013-06-03 23:48:00,72.1,68.7,30.11,NNE,13,0.0,0.0,89,0.00,,BKN100,1.01,VWS V14.01,2013-06-04 03:48:00,
2013-06-03 23:53:00,72.1,69.0,30.11,NNE,13,0.0,0.0,90,0.00,,BKN100,1.01,VWS V14.01,2013-06-04 03:53:00,
2013-06-03 23:58:00,72.1,69.0,30.11,NNE,13,0.0,0.0,90,0.00,,BKN100,1.01,VWS V14.01,2013-06-04 03:58:00,